^^
Station Historical Data
Daily Summary for June 25, 2021 Units:  English    Metric   Both
Daily Weekly Monthly Yearly
  High: Low: Average:
Temperature: 69.9 °F 68 °F 68.8 °F
Dew Point: 65.5 °F 63.5 °F 64.7 °F
Humidity: 90% 84% 87%
Wind Speed: 2mph 0mph 0.7mph
Wind Gust: 3mph - -
Wind- - ESE
Pressure: 29.98 in 29.92 in -
Precipitation: 0.01 in    
 
 
Tabular Data for June 25, 2021
Time Temperature Dew Point Pressure Wind Wind Speed Wind Gust Humidity Rainfall Rate (Hourly) solar
00:00 68.7 °F 64.7 °F 29.94 in Calm   2 mph 87% 0.00 in 0 W/m2
00:05 68.8 °F 64.8 °F 29.94 in Calm   2 mph 87% 0.00 in 0 W/m2
00:10 68.7 °F 64.7 °F 29.94 in Calm     87% 0.00 in 0 W/m2
00:15 68.7 °F 64.7 °F 29.95 in Calm     87% 0.00 in 0 W/m2
00:20 68.6 °F 64.6 °F 29.95 in Calm     87% 0.00 in 0 W/m2
00:25 68.6 °F 64.6 °F 29.95 in Calm     87% 0.00 in 0 W/m2
00:30 68.5 °F 64.5 °F 29.95 in Calm     87% 0.00 in 0 W/m2
00:35 68.4 °F 64 °F 29.95 in Calm     86% 0.00 in 0 W/m2
00:40 68.3 °F 63.9 °F 29.96 in Calm     86% 0.00 in 0 W/m2
00:45 68.2 °F 63.9 °F 29.95 in Calm     86% 0.00 in 0 W/m2
00:50 68.2 °F 63.9 °F 29.96 in Calm     86% 0.00 in 0 W/m2
00:55 68.1 °F 63.8 °F 29.95 in Calm   1 mph 86% 0.00 in 0 W/m2
01:00 68.2 °F 63.5 °F 29.95 in Calm     85% 0.00 in 0 W/m2
01:05 68.4 °F 64 °F 29.95 in Calm     86% 0.00 in 0 W/m2
01:10 68.4 °F 63.7 °F 29.95 in Calm     85% 0.00 in 0 W/m2
01:15 68.5 °F 64.1 °F 29.95 in Calm     86% 0.00 in 0 W/m2
01:20 68.5 °F 64.1 °F 29.96 in Calm     86% 0.00 in 0 W/m2
01:25 68.5 °F 64.1 °F 29.96 in Calm     86% 0.00 in 0 W/m2
01:30 68.5 °F 64.1 °F 29.96 in Calm     86% 0.00 in 0 W/m2
01:35 68.5 °F 63.8 °F 29.96 in Calm     85% 0.00 in 0 W/m2
01:40 68.4 °F 64 °F 29.97 in Calm     86% 0.00 in 0 W/m2
01:45 68.4 °F 64 °F 29.97 in Calm     86% 0.00 in 0 W/m2
01:50 68.4 °F 64 °F 29.98 in Calm     86% 0.00 in 0 W/m2
01:55 68.4 °F 64 °F 29.98 in Calm     86% 0.00 in 0 W/m2
02:00 68.4 °F 64 °F 29.98 in Calm     86% 0.00 in 0 W/m2
02:05 68.4 °F 64.4 °F 29.98 in East 1 mph 1 mph 87% 0.00 in 0 W/m2
02:10 68.4 °F 64.4 °F 29.98 in West 1 mph 3 mph 87% 0.00 in 0 W/m2
02:15 68.5 °F 64.5 °F 29.98 in WNW 1 mph 3 mph 87% 0.00 in 0 W/m2
02:20 68.6 °F 64.6 °F 29.98 in WSW 2 mph 2 mph 87% 0.00 in 0 W/m2
02:25 68.6 °F 64.2 °F 29.97 in ENE 1 mph 2 mph 86% 0.00 in 0 W/m2
02:30 68.7 °F 64.3 °F 29.97 in Calm     86% 0.00 in 0 W/m2
02:35 68.7 °F 64.3 °F 29.97 in Calm     86% 0.00 in 0 W/m2
02:40 68.8 °F 64.4 °F 29.97 in Calm     86% 0.00 in 0 W/m2
02:45 68.9 °F 64.9 °F 29.97 in Calm     87% 0.00 in 0 W/m2
02:50 69 °F 65 °F 29.97 in Calm   1 mph 87% 0.00 in 0 W/m2
02:55 69.1 °F 65.4 °F 29.97 in Calm   1 mph 88% 0.00 in 0 W/m2
03:00 69.2 °F 65.5 °F 29.97 in Calm     88% 0.00 in 0 W/m2
03:05 69.2 °F 65.5 °F 29.97 in Calm     88% 0.00 in 0 W/m2
03:10 69.1 °F 65.4 °F 29.97 in Calm     88% 0.00 in 0 W/m2
03:15 69 °F 65.3 °F 29.97 in Calm   1 mph 88% 0.00 in 0 W/m2
03:20 68.9 °F 64.9 °F 29.97 in Calm   1 mph 87% 0.00 in 0 W/m2
03:25 68.7 °F 65 °F 29.96 in SE 1 mph 1 mph 88% 0.00 in 0 W/m2
03:30 68.6 °F 64.9 °F 29.96 in East 1 mph 2 mph 88% 0.00 in 0 W/m2
03:35 68.5 °F 65.1 °F 29.95 in SE 1 mph 2 mph 89% 0.00 in 0 W/m2
03:40 68.2 °F 64.8 °F 29.95 in SSE 1 mph 1 mph 89% 0.00 in 0 W/m2
03:45 68.2 °F 65.2 °F 29.95 in South 1 mph 1 mph 90% 0.00 in 0 W/m2
03:50 68.2 °F 65.2 °F 29.95 in ENE 1 mph 1 mph 90% 0.00 in 0 W/m2
03:55 68.1 °F 65.1 °F 29.95 in ENE 1 mph 1 mph 90% 0.00 in 0 W/m2
04:00 68 °F 64.6 °F 29.94 in SSW 1 mph 2 mph 89% 0.00 in 0 W/m2
04:05 68 °F 65 °F 29.94 in SSE 1 mph 2 mph 90% 0.00 in 0 W/m2
04:10 68.1 °F 65.1 °F 29.94 in NNW 1 mph 1 mph 90% 0.00 in 0 W/m2
04:15 68.3 °F 64.9 °F 29.93 in NE 1 mph 1 mph 89% 0.00 in 0 W/m2
04:20 68.4 °F 65 °F 29.93 in ENE 1 mph 1 mph 89% 0.00 in 0 W/m2
04:25 68.4 °F 65 °F 29.93 in NE 1 mph 1 mph 89% 0.00 in 0 W/m2
04:30 68.5 °F 65.1 °F 29.93 in West 1 mph 1 mph 89% 0.00 in 0 W/m2
04:35 68.4 °F 65 °F 29.94 in SE 1 mph 2 mph 89% 0.00 in 0 W/m2
04:40 68.3 °F 64.9 °F 29.94 in ENE 1 mph 1 mph 89% 0.00 in 0 W/m2
04:45 68.3 °F 64.9 °F 29.94 in NNW 1 mph 1 mph 89% 0.00 in 0 W/m2
04:50 68.4 °F 64.7 °F 29.94 in East 1 mph 2 mph 88% 0.00 in 0 W/m2
04:55 68.4 °F 64.7 °F 29.94 in NE 1 mph 2 mph 88% 0.00 in 0 W/m2
05:00 68.5 °F 64.8 °F 29.94 in East 1 mph 1 mph 88% 0.00 in 0 W/m2
05:05 68.5 °F 64.8 °F 29.94 in North 1 mph 1 mph 88% 0.00 in 0 W/m2
05:10 68.6 °F 64.9 °F 29.94 in ENE 1 mph 1 mph 88% 0.00 in 0 W/m2
05:15 68.6 °F 64.9 °F 29.94 in NE 1 mph 1 mph 88% 0.00 in 0 W/m2
05:20 68.7 °F 65 °F 29.94 in NNE 1 mph 2 mph 88% 0.00 in 0 W/m2
05:25 68.9 °F 64.9 °F 29.94 in ENE 1 mph 2 mph 87% 0.00 in 0 W/m2
05:30 69.1 °F 64.7 °F 29.94 in NE 2 mph 2 mph 86% 0.00 in 0 W/m2
05:35 69.3 °F 64.9 °F 29.94 in NNE 2 mph 3 mph 86% 0.00 in 0 W/m2
05:40 69.5 °F 65.1 °F 29.94 in NNE 2 mph 2 mph 86% 0.00 in 0 W/m2
05:45 69.5 °F 64.8 °F 29.93 in NNE 2 mph 3 mph 85% 0.00 in 0 W/m2
05:50 69.6 °F 64.9 °F 29.93 in NNE 2 mph 2 mph 85% 0.00 in 0 W/m2
05:55 69.6 °F 64.9 °F 29.93 in North 2 mph 2 mph 85% 0.00 in 0 W/m2
06:00 69.5 °F 64.8 °F 29.93 in NNW 2 mph 2 mph 85% 0.00 in 0 W/m2
06:05 69.5 °F 64.8 °F 29.93 in NNE 1 mph 3 mph 85% 0.00 in 0 W/m2
06:10 69.4 °F 64.7 °F 29.93 in NE 1 mph 1 mph 85% 0.00 in 0 W/m2
06:15 69.5 °F 64.8 °F 29.93 in NE 1 mph 2 mph 85% 0.00 in 0 W/m2
06:20 69.7 °F 64.6 °F 29.93 in NE 2 mph 2 mph 84% 0.00 in 0 W/m2
06:25 69.7 °F 64.6 °F 29.93 in NE 2 mph 2 mph 84% 0.00 in 5 W/m2
06:30 69.7 °F 65 °F 29.92 in NNE 1 mph 2 mph 85% 0.00 in 5 W/m2
06:35 69.6 °F 64.9 °F 29.92 in ESE 1 mph 2 mph 85% 0.00 in 7 W/m2
06:40 69.6 °F 64.9 °F 29.92 in NE 1 mph 1 mph 85% 0.00 in 7 W/m2
06:45 69.5 °F 64.8 °F 29.92 in East 1 mph 1 mph 85% 0.00 in 9 W/m2
06:50 69.5 °F 65.1 °F 29.92 in ENE 1 mph 1 mph 86% 0.00 in 9 W/m2
06:55 69.4 °F 65 °F 29.92 in NE 1 mph 1 mph 86% 0.00 in 11 W/m2
07:00 69.4 °F 65 °F 29.92 in Calm     86% 0.00 in 11 W/m2
07:05 69.4 °F 65 °F 29.92 in Calm     86% 0.00 in 11 W/m2
07:10 69.4 °F 65 °F 29.92 in Calm     86% 0.00 in 12 W/m2
07:15 69.4 °F 65 °F 29.92 in Calm   1 mph 86% 0.00 in 14 W/m2
07:20 69.4 °F 65 °F 29.92 in Calm     86% 0.00 in 19 W/m2
07:25 69.3 °F 64.9 °F 29.92 in Calm   1 mph 86% 0.00 in 23 W/m2
07:30 69.4 °F 65 °F 29.92 in East 1 mph 1 mph 86% 0.00 in 42 W/m2
07:35 69.4 °F 65 °F 29.92 in North 1 mph 1 mph 86% 0.00 in 47 W/m2
07:40 69.7 °F 65 °F 29.92 in North 1 mph 1 mph 85% 0.00 in 54 W/m2
07:45 69.9 °F 65.2 °F 29.92 in North 2 mph 2 mph 85% 0.00 in 53 W/m2
07:50 69.9 °F 65.5 °F 29.92 in NE 2 mph 2 mph 86% 0.00 in 46 W/m2
07:55 69.8 °F 65.4 °F 29.92 in NNW 2 mph 2 mph 86% 0.00 in 44 W/m2
Sand Point, Michigan, USA
Compliments of Weather Underground - 2 mb